Flag for U.S.A. Weather past 2 weeks in Spokane, Washington, U.S.A.

Now
76 °F

Sunny.


Feels Like: 77 °F
Forecast: 50 / 80 °F
Wind: 9 mph from Southwest

Location: Felts Field

Current Time: Sep 19, 2014 at 7:12:14 PM

Latest Report: Sep 19, 2014 at 5:53 PM


Visibility: 10 mi

Pressure: 30.00 "Hg

Humidity: 33%

Dew point: 45 °F

Location of SpokaneLocation

Historic Weather in Spokane — Graph

°F

Spokane temperature yesterday

Maximum temperature yesterday: 82 °F (at 1:53 PM)
Minimum temperature yesterday: 56 °F (at 3:53 AM)
Average temperature yesterday: 69 °F

Past Weeks' High & Low Weather Summary

 TemperatureHumidityPressure
High86 °F (Sep 7, 2:53 PM)89% (Sep 5, 3:53 AM)30.47 "Hg (Sep 5, 3:53 AM)
Low37 °F (Sep 12, 5:53 AM)9% (Sep 7, 4:53 PM)29.60 "Hg (Sep 18, 12:53 AM)
Average62 °F44%29.97 "Hg
* Reported Sep 4 5:53 PM — Sep 19 5:53 PM, Spokane, Weather by CustomWeather, © 2014

Note: Actual official high and low records may vary slightly from our data, if they occured in-between our weather recording intervals... More about our weather records

Advertising

Spokane weather history for previous 24 hours

 ConditionsComfort  
Time TempWeatherWind HumidityBarometerVisibility
5:53 PM
Sep 19
76 °FSunny.9 mph33%30.00 "Hg10 mi
4:53 PM77 °FSunny.10 mph32%29.98 "Hg10 mi
3:53 PM77 °FPartly sunny.9 mph32%29.99 "Hg10 mi
2:53 PM76 °FPartly sunny.14 mph35%30.01 "Hg10 mi
1:53 PM74 °FPartly sunny.9 mph38%30.01 "Hg10 mi
12:53 PM74 °FSunny.5 mph40%30.01 "Hg10 mi
11:53 AM72 °FSunny.8 mph43%30.02 "Hg10 mi
10:53 AM68 °FSunny.7 mph51%30.03 "Hg10 mi
9:53 AM65 °FSunny.9 mph56%30.02 "Hg10 mi
8:53 AM62 °FPassing clouds.8 mph62%30.01 "Hg10 mi
7:53 AM60 °FPassing clouds.3 mph67%30.00 "Hg10 mi
6:53 AM58 °FPassing clouds.6 mph72%29.98 "Hg10 mi
5:53 AM58 °FPassing clouds.3 mph72%29.95 "Hg10 mi
4:53 AM58 °FClear.10 mph70%29.93 "Hg10 mi
3:53 AM60 °FOvercast.5 mph65%29.90 "Hg10 mi
2:53 AM61 °FMostly cloudy.3 mph62%29.88 "Hg10 mi
1:53 AM62 °FOvercast.6 mph58%29.86 "Hg10 mi
12:53 AM63 °FPassing clouds.10 mph56%29.84 "Hg10 mi
11:53 PM
Sep 18
65 °FPassing clouds.8 mph52%29.82 "Hg10 mi
10:53 PM67 °FClear.8 mph47%29.79 "Hg10 mi
9:53 PM70 °FPassing clouds.8 mph42%29.77 "Hg10 mi
8:53 PM72 °FOvercast.8 mph40%29.76 "Hg10 mi
7:53 PM74 °FOvercast.9 mph38%29.75 "Hg10 mi
Weather by CustomWeather, © 2014

See weather overviewHow to use our weather pages